Location: Sky Meadows State Park
(38.9917°N, 77.9667°W)
Time: 10:54:24
(UTC-04:00)

Tiangong 2 - Visible Passes

Search period start: 24 May 2019 00:00
Search period end: 03 June 2019 00:00
Orbit: 379 x 387 km, 42.8° (Epoch: 24 May)

Date Brightness Start Highest point End Pass type
(mag) Time Alt. Az. Time Alt. Az. Time Alt. Az.
24 May 2.3 22:21:35 10° WNW 22:24:34 40° N 22:25:36 29° NE visible
25 May 2.4 21:21:27 10° WNW 21:24:25 38° N 21:27:23 10° ENE visible
25 May 2.5 22:58:17 10° WNW 23:00:24 37° NW 23:00:24 37° NW visible
26 May 1.9 21:58:14 10° WNW 22:01:17 46° N 22:02:58 22° ENE visible
26 May 4.2 23:34:59 10° WNW 23:35:08 11° WNW 23:35:08 11° WNW visible
27 May 2.3 20:58:09 10° WNW 21:01:08 39° N 21:04:07 10° ENE visible
27 May 1.2 22:34:53 10° WNW 22:37:41 68° WNW 22:37:41 68° WNW visible
28 May 1.4 21:34:51 10° WNW 21:37:58 61° NNE 21:40:13 17° E visible
28 May 3.8 23:11:47 10° W 23:12:23 14° W 23:12:23 14° W visible
29 May 1.3 22:11:31 10° WNW 22:14:35 51° SSW 22:14:56 48° S visible
30 May 1.0 21:11:25 10° WNW 21:14:34 88° SSW 21:17:29 11° ESE visible
30 May 3.7 22:48:53 10° WSW 22:49:40 13° WSW 22:49:40 13° WSW visible
31 May 2.3 21:48:16 10° W 21:51:03 29° SSW 21:52:15 22° S visible
02 Jun 3.2 21:25:19 10° WSW 21:27:25 17° SW 21:29:32 10° S visible
